Regional Weather Roundup
Issued by NWS

Home | Current Version | Previous Version | Graphics & Text | Print | Product List | Glossary On
Versions: 1 2 3 4 5 6 7 8 9 10 11 12 13 14 15 16 17 18 19 20 21 22 23 24 25 26 27 28 29 30 31 32 33 34 35 36 37 38 39 40 41 42 43 44 45 46 47 48 49 50
000
ASUS43 KLOT 230907
RWRIL

ILLINOIS REGIONAL WEATHER ROUNDUP
NATIONAL WEATHER SERVICE CHICAGO/ROMEOVILLE IL
400 AM CDT THU MAR 23 2017

NOTE: "FAIR" INDICATES FEW OR NO CLOUDS BELOW 12,000 FEET WITH NO
SIGNIFICANT WEATHER AND/OR OBSTRUCTIONS TO VISIBILITY.

* THESE STATIONS ARE NOT UNDER NWS QUALITY CONTROL. THEY ALSO MAY NOT
  REPORT WEATHER SUCH AS PRECIPITATION OR FOG.

ILZ001-002-007-009-015-016-024-231000-
NORTHWEST ILLINOIS

CITY           SKY/WX    TMP DP  RH WIND       PRES   REMARKS
MOLINE         CLOUDY    33  22  63 E9        30.34F WCI  25
STERLING*      MOCLDY    32  22  66 SE10      30.38S WCI  24
SAVANNA*       MOCLDY    33  21  61 SE9       30.37F WCI  25
$$

ILZ003-004-008-010-011-017-018-231000-
NORTH CENTRAL ILLINOIS

CITY           SKY/WX    TMP DP  RH WIND       PRES   REMARKS
ROCKFORD       CLOUDY    31  21  66 SE5       30.41F WCI  26
FREEPORT*      CLOUDY    30  21  69 E9        30.40F WCI  22
ROCHELLE*      CLOUDY    32  22  65 SE10      30.40F WCI  24
DE KALB*       CLOUDY    32  21  64 SE13      30.39F WCI  22
PERU*          CLOUDY    31  21  66 SE9       30.39R WCI  23
$$

ILZ005-006-012>014-019>023-231000-
NORTHEAST ILLINOIS

CITY           SKY/WX    TMP DP  RH WIND       PRES   REMARKS
CHICAGO-OHARE  MOCLDY    31  19  61 SE8       30.42F WCI  23
CHICAGO-MIDWAY MOCLDY    32  19  58 SE9       30.43F WCI  24
AURORA         CLOUDY    33  21  61 SE9       30.40F WCI  25
LANSING*       PTCLDY    29  22  76 SE7       30.44F WCI  22
JOLIET*        CLOUDY    33  22  63 SE12      30.42F WCI  24
WAUKEGAN       CLOUDY    32  22  66 S7        30.42F WCI  26
DUPAGE AIRPORT CLOUDY    32  21  64 SE8       30.40F WCI  25
KANKAKEE*      MOCLDY    29  22  74 E12       30.42F WCI  20
WHEELING       CLOUDY    28  22  78 S3        30.43F
MORRIS*        CLOUDY    33  22  64 SE13      30.40F WCI  24
ROMEOVILLE*    CLOUDY    32  24  71 SE10      30.41F WCI  24
NORTHERLY ISL    N/A     33  22  64 SE12        N/A  WCI  24
$$

LMZ740>746-231000-
SOUTHERN LAKE MICHIGAN

STATION/POSITION SKY/WX   TEMP    WIND        PRES    VSBY  WAVE
                          AIR SEA DIR/SP/G                  HT/PER
                          (F)     (DEG/KT/KT) (MB)    (MI)  (FT/S)
HARRISON CRIB              34     150/ 20/ 23   N/A
BURNHAM HARBOR             33     150/  9/ 14   N/A
CALUMET HARBOR             32     120/ 11/ 17 1029.8F
BURNS HARBOR               31     140/  9/ 14 1030.8F
MICHIGAN CITY              29     120/  6/  7   N/A
$$

ILZ025>027-034>036-040-047-049-050-058-095>099-231000-
WEST-CENTRAL ILLINOIS

CITY           SKY/WX    TMP DP  RH WIND       PRES   REMARKS
QUINCY         CLOUDY    38  20  48 SE14      30.26F WCI  30
GALESBURG*     CLOUDY    34  24  65 E6          N/A  WCI  29
MACOMB*        CLOUDY    36  22  58 SE12      30.34S WCI  27
JACKSONVILLE*  CLOUDY    36  21  55 SE12      30.32F WCI  28
PITTSFIELD*    CLOUDY    39  22  50 SE8       30.30F WCI  34
$$

ILZ028>032-037-038-041>044-048-051>054-059>061-231000-
CENTRAL ILLINOIS

CITY           SKY/WX    TMP DP  RH WIND       PRES   REMARKS
PONTIAC        CLOUDY    31  26  82 E12       30.39F WCI  22
BLOOMINGTON    PTCLDY    31  23  72 SE15      30.36F WCI  20
DECATUR        CLOUDY    34  21  59 SE12      30.35F WCI  25
PEORIA         CLOUDY    34  22  61 SE12      30.35F WCI  25
LACON*         CLOUDY    31  25  77 E9        30.36F WCI  23
LINCOLN*       MOCLDY    34  24  66 SE8       30.36F WCI  27
SPRINGFIELD    PTCLDY    37  21  52 SE13      30.33F WCI  29
TAYLORVILLE    PTCLDY    35  22  58 E15       30.33F WCI  25
$$

ILZ033-039-045-046-055>057-062-063-231000-
EAST-CENTRAL ILLINOIS

CITY           SKY/WX    TMP DP  RH WIND       PRES   REMARKS
CHAMPAIGN      PTCLDY    31  22  69 E13       30.36F WCI  21
RANTOUL*       CLOUDY    31  26  80 E8        30.38F WCI  24
MATTOON        CLOUDY    34  22  61 SE14      30.35F WCI  25
PARIS*         CLOUDY    31  23  72 E8        30.38F WCI  24
$$

ILZ079-100>102-231000-
SOUTHWEST ILLINOIS

CITY           SKY/WX    TMP DP  RH WIND       PRES   REMARKS
ALTON          CLOUDY    38  22  51 E9        30.31F WCI  32
BELLEVILLE     CLOUDY    39  23  51 E6        30.31F WCI  35
CAHOKIA*       CLOUDY    42  20  41 SE12      30.31F
SPARTA*        CLOUDY    39  23  51 E5        30.32S
$$

ILZ064>066-069>071-074>076-080>082-084>086-088>090-092>094-231000-
SOUTH-CENTRAL ILLINOIS

CITY           SKY/WX    TMP DP  RH WIND       PRES   REMARKS
CARBONDALE     CLOUDY    41  23  48 E7        30.31F
CAIRO*         CLOUDY    43  26  50 E7        30.29F
EFFINGHAM*     PTCLDY    36  24  62 E9        30.37F WCI  29
MARION         CLOUDY    41  23  48 E8        30.31F
MT. VERNON     CLEAR     36  21  54 E6        30.33F WCI  31
CENTRALIA*     PTCLDY    37  24  58 E7        30.32S WCI  32
SALEM*         CLOUDY    37  22  54 E7        30.33F WCI  32
METROPOLIS*    CLOUDY    41  23  49 E5        30.31S
$$

ILZ067-068-072-073-078-083-087-091-231000-
SOUTHEAST ILLINOIS

CITY           SKY/WX    TMP DP  RH WIND       PRES   REMARKS
LAWRENCEVILLE  CLOUDY    32  22  66 E9        30.37F WCI  24
FLORA*         CLEAR     37  25  60 E7        30.35F WCI  32
FAIRFIELD*     CLOUDY    36  23  59 E8        30.33F WCI  30
HARRISBURG*    CLEAR     37  25  63 E8        30.33F WCI  30
ROBINSON*      CLOUDY    30  22  70 E6        30.39F WCI  24
CARMI*         CLEAR     35  24  65 E6        30.35S WCI  30
$$

ABBREVIATIONS USED IN REMARKS
   TC - TEMPERATURE IN CELSIUS
  WCI - WIND CHILL INDEX
   HX - HEAT INDEX
  VSB - VISIBILITY
$$




USA.gov is the U.S. government's official web portal to all federal, state and local government web resources and services.